Location: Observatoire
(46.1952°N, 5.3391°E)
Time: 20:41:02
(UTC+01:00)

Explorer 7 - Pass Details

Date: 19 February 2026
Orbit: 430 x 541 km, 50.2° (Epoch: 10 March)

Event Time Altitude Azimuth Distance (km) Brightness Sun altitude
Rises 17:02:17 0° 267° (W) 2,444 11.5 10.1°
Reaches altitude 10° 17:04:25 10° 273° (W) 1,590 10.4 9.8°
Maximum altitude 17:07:54 49° 349° (N) 612 7.1 9.2°
Drops below altitude 10° 17:11:33 10° 66° (ENE) 1,656 8.7 8.7°
Sets 17:13:49 0° 72° (ENE) 2,560 9.6 8.3°
